カタログに戻る

STARLINK-31776

運用中通信VLEO
NORAD 59603·PAYLOAD·🇺🇸 United States

打ち上げ Apr 28, 2024 から Cape Canaveral Space Force Station

Loading…

次のパス (今後24時間)

TLE

最新Source: CelesTrak SupGP

元期: Sep 14, 2026, 22:21 UTC

1 59603C 24080C   26257.93173611  .00054630  00000+0  19785-2 0  2576
2 59603  43.0035  52.8928 0001480 275.3591  15.5035 15.27554920    19

AllMySatでSTARLINK-31776をリアルタイム追跡

Download on the App Store